Submittal Forms
Current Contests
Recent Contests

Club Activity Tracker - Croatian Contest Club (from club selection on form)

Recent postings for the selected club or group are listed below. Other than the call used, all calls listed are only those associated with the club or group. Click on a call to see the details of the posting.
Status Key: new=new posting, update=update prior posting, move=change club/group, delete=delete prior posting.

Sort by   for past

TimestampCallContestClassPowerScoreStatus
2020-05-28 03:52:409A1AACWopsTSingle OpLP400new5615
2020-05-27 20:05:599A1AACWopsTSingle OpHP5,929new5614
2020-05-27 14:02:169A1AACWopsTSingle OpHP6,889new5613
2020-05-21 04:00:449A1AACWopsTSingle OpLP144new5594
2020-05-20 20:02:199A1AACWopsTSingle OpHP4,899new5593
2020-05-20 14:01:449A1AACWopsTSingle OpHP3,304new5592
2020-05-18 18:47:079A2AJKing of Spain CWSOSB/40HP109,752new5583
2020-05-14 04:04:129A1AACWopsTSingle OpLP324new5576
2020-05-13 20:01:599A1AACWopsTSingle OpHP4,347new5575
2020-05-13 14:05:529A1AACWopsTSingle OpHP10,201new5574
 
2020-05-11 16:02:269A5W(@9A1A)CQ-MSOSB/40CWHP218,110new5564
2020-05-10 19:04:319A1CHRIS(9A1AA)CQ-MSOABCWHP456,520new5564
2020-05-10 15:09:119A2AJCQ-MSOSB/20CWHP99,288update5564
2020-05-10 12:29:459A6AVolta RTTYSOABHP495,713,848new5563
2020-05-07 04:02:579A1AACWopsTSingle OpHP1,116new5559
2020-05-06 20:08:019A1AACWopsTSingle OpHP4,697new5558
2020-05-06 14:04:359A1AACWopsTSingle OpHP5,329new5557
2020-05-03 21:02:449A3B(9A1AA)YU DXSOSB/80HP57,456new5505
2020-05-03 19:22:109A1AAARISO CWHP877,268new5543
2020-04-30 09:05:069A1AACWopsTSingle OpLP208new5537
 
2020-04-29 20:12:069A1AACWopsTSingle OpHP7,921new5536
2020-04-29 14:05:249A1AACWopsTSingle OpHP7,921new